sat.trackr.live / text

‹ back to catalog

ONEWEB-0392

NORAD 50472 · 2021-132D

PAYLOAD ACTIVE UNKNOWN

§ Identity

Operator
Country
UK
Launch date
2021-12-27
Launch site
TYMSC
Launch vehicle
Mass (kg)
RCS (m²)

Purposes: comms

External: N2YO · Heavens-Above · Gunter

§ Orbital elements

Epoch: 2026-09-12T17:03:44.458272Z

Period
109.29 min
Inclination
87.9207°
Eccentricity
0.0001963
Mean motion
13.17650387 rev/d
Perigee alt
1,192.2 km
Apogee alt
1,195.2 km
Semi-major
7,571.8 km
B*
2.1578e-4
RAAN
348.4720°
Arg perigee
112.1718°
Mean anomaly
247.9622°
Rev number
22,964

§ Raw data

ONEWEB-03921 50472U 21132D   26255.71093123  .00000097  00000+0  21578-3 0  99942 50472  87.9207 348.4720 0001963 112.1718 247.9622 13.17650387229647

JSON: /api/v1/satellites/50472 · /tle

For live sub-satellite position, see the globe view (requires WebGL).

§ Visibility from observer

Set your observer location to see the next 7 days of passes ≥ 10°. The values pass through the URL so the page stays shareable.

No JS? Fill the form by hand. The geolocation button needs JavaScript.